JAL724 WMKK-RJAA

Flight info

Callsign JAL724
Flight time N/A
Altitude 37000
Route KIMAT1D KIMAT Y344 VPK L629 DOLOX/N0500F360 M771 DUDIS/K0926F360 M771 DAGAG/K0919F370 M765 ALDAS/K0922F360 L625 ANOKI/N0498F360 L625 AVMUP/N0488F390 L625 MEVIN B462 KAZIK Y59 AZAMA Y57 YULIA Y89 GUPER Y81 RUTAS
Aircraft A35K/H-SDE2E3GHIJ3J4J5LM1ORWXY/LB1D1

Departure

Time 2026-05-04 05:11
Airport Kuala Lumpur International Airport (WMKK)

Arrival

Time N/A
Airport Narita International Airport (RJAA)
Time Latitude Longitude Altitude Speed Heading
2026-05-04 04:55 2.75014 101.71301 79 ft 0 kts 236°
2026-05-04 05:01 2.75018 101.71306 79 ft 4 kts 236°
2026-05-04 05:02 2.75033 101.71328 67 ft 4 kts 236°
2026-05-04 05:02 2.75045 101.71346 67 ft 4 kts 236°
2026-05-04 05:02 2.75059 101.71366 67 ft 4 kts 221°
2026-05-04 05:02 2.75074 101.71373 67 ft 4 kts 136°
2026-05-04 05:03 2.75089 101.71352 67 ft 4 kts 123°
2026-05-04 05:03 2.75102 101.71336 67 ft 0 kts 146°
2026-05-04 05:06 2.75040 101.71378 67 ft 6 kts 143°
2026-05-04 05:06 2.75027 101.71419 67 ft 7 kts 82°
2026-05-04 05:06 2.75051 101.71467 67 ft 9 kts 58°
2026-05-04 05:07 2.75088 101.71523 70 ft 11 kts 56°
2026-05-04 05:07 2.75133 101.71590 67 ft 12 kts 56°
2026-05-04 05:07 2.75128 101.71665 84 ft 12 kts 136°
2026-05-04 05:09 2.74675 101.72120 90 ft 10 kts 56°
2026-05-04 05:09 2.74723 101.72192 90 ft 14 kts 55°
2026-05-04 05:10 2.74767 101.72242 90 ft 6 kts 22°
2026-05-04 05:10 2.74802 101.72229 90 ft 6 kts 328°
2026-05-04 05:10 2.74912 101.72157 88 ft 44 kts 326°
2026-05-04 05:10 2.75366 101.71851 87 ft 111 kts 326°
2026-05-04 05:11 2.76175 101.71309 66 ft 167 kts 326°
2026-05-04 05:11 2.77182 101.70632 657 ft 169 kts 326°
2026-05-04 05:11 2.78184 101.69961 1239 ft 180 kts 324°
2026-05-04 05:11 2.79288 101.69248 1498 ft 203 kts 328°
2026-05-04 05:12 2.80664 101.68639 1710 ft 228 kts 338°
2026-05-04 05:12 2.82245 101.68067 1973 ft 253 kts 339°
2026-05-04 05:12 2.83945 101.67468 2603 ft 260 kts 339°
2026-05-04 05:12 2.85639 101.66866 3406 ft 260 kts 340°
2026-05-04 05:13 2.87355 101.66255 4146 ft 263 kts 340°
2026-05-04 05:13 2.89095 101.65635 4852 ft 267 kts 340°
2026-05-04 05:13 2.90921 101.65250 5569 ft 271 kts 358°
2026-05-04 05:13 2.92754 101.65585 6229 ft 275 kts 22°
2026-05-04 05:14 2.94459 101.66476 6922 ft 279 kts 30°
2026-05-04 05:14 2.96135 101.67476 7652 ft 282 kts 30°
2026-05-04 05:14 2.97827 101.68485 8424 ft 283 kts 31°
2026-05-04 05:14 2.99542 101.69497 9193 ft 286 kts 31°
2026-05-04 05:15 3.01240 101.70493 10007 ft 286 kts 31°
2026-05-04 05:15 3.02995 101.71519 10508 ft 300 kts 31°
2026-05-04 05:15 3.04869 101.72610 10802 ft 319 kts 31°
2026-05-04 05:15 3.06840 101.73757 11085 ft 337 kts 31°
2026-05-04 05:16 3.08919 101.74966 11337 ft 353 kts 31°
2026-05-04 05:16 3.11099 101.76233 11573 ft 368 kts 31°
2026-05-04 05:16 3.13321 101.77524 11895 ft 378 kts 31°
2026-05-04 05:16 3.15595 101.78886 12380 ft 383 kts 34°
2026-05-04 05:17 3.17594 101.80652 12909 ft 384 kts 51°
2026-05-04 05:17 3.19188 101.82823 13411 ft 387 kts 57°
2026-05-04 05:17 3.20692 101.85070 13927 ft 389 kts 57°
2026-05-04 05:17 3.22205 101.87335 14358 ft 393 kts 57°
2026-05-04 05:18 3.23737 101.89618 14800 ft 396 kts 57°
2026-05-04 05:18 3.25084 101.92001 15209 ft 399 kts 67°
2026-05-04 05:18 3.25833 101.94689 15648 ft 400 kts 83°
2026-05-04 05:18 3.25816 101.97447 16087 ft 402 kts 98°
2026-05-04 05:19 3.25218 102.00207 16516 ft 405 kts 104°
2026-05-04 05:19 3.24493 102.02960 16948 ft 408 kts 104°
2026-05-04 05:19 3.23772 102.05687 17365 ft 411 kts 104°
2026-05-04 05:19 3.23047 102.08466 17783 ft 414 kts 104°
2026-05-04 05:20 3.22322 102.11271 18210 ft 416 kts 104°
2026-05-04 05:20 3.21598 102.14079 18581 ft 418 kts 104°
2026-05-04 05:20 3.20871 102.16909 18936 ft 421 kts 104°
2026-05-04 05:20 3.20140 102.19757 19267 ft 423 kts 104°
2026-05-04 05:21 3.19414 102.22589 19622 ft 425 kts 104°
2026-05-04 05:21 3.18674 102.25475 19980 ft 427 kts 104°
2026-05-04 05:21 3.17934 102.28363 20321 ft 430 kts 104°
2026-05-04 05:21 3.17200 102.31279 20648 ft 432 kts 103°
2026-05-04 05:22 3.16730 102.34220 20979 ft 434 kts 94°
2026-05-04 05:22 3.16769 102.37250 21334 ft 437 kts 84°
2026-05-04 05:22 3.17217 102.40281 21684 ft 440 kts 81°
2026-05-04 05:22 3.17811 102.43296 22055 ft 442 kts 79°
2026-05-04 05:23 3.18475 102.46319 22421 ft 445 kts 78°
2026-05-04 05:23 3.19151 102.49311 22777 ft 447 kts 78°
2026-05-04 05:23 3.19836 102.52363 23132 ft 450 kts 78°
2026-05-04 05:23 3.20512 102.55436 23485 ft 452 kts 78°
2026-05-04 05:24 3.21178 102.58516 23778 ft 455 kts 79°
2026-05-04 05:24 3.21841 102.61623 24061 ft 457 kts 79°
2026-05-04 05:24 3.22492 102.64706 24355 ft 460 kts 79°
2026-05-04 05:24 3.23156 102.67856 24669 ft 462 kts 79°
2026-05-04 05:25 3.23820 102.71009 24998 ft 464 kts 79°
2026-05-04 05:25 3.24489 102.74189 25335 ft 467 kts 79°
2026-05-04 05:25 3.25153 102.77340 25673 ft 469 kts 79°
2026-05-04 05:25 3.25830 102.80552 26026 ft 472 kts 79°
2026-05-04 05:26 3.26509 102.83773 26382 ft 475 kts 78°
2026-05-04 05:26 3.27194 102.87020 26746 ft 478 kts 78°
2026-05-04 05:26 3.27884 102.90290 27117 ft 481 kts 78°
2026-05-04 05:26 3.28578 102.93585 27505 ft 483 kts 78°
2026-05-04 05:27 3.29276 102.96895 27891 ft 486 kts 78°
2026-05-04 05:28 3.34256 103.20528 30229 ft 504 kts 78°
2026-05-04 05:29 3.34976 103.23954 30649 ft 503 kts 78°
2026-05-04 05:29 3.35699 103.27388 31040 ft 502 kts 78°
2026-05-04 05:29 3.36409 103.30761 31445 ft 500 kts 78°
2026-05-04 05:29 3.37126 103.34169 31813 ft 500 kts 78°
2026-05-04 05:31 3.47498 103.54440 34015 ft 497 kts 54°
2026-05-04 05:31 3.50208 103.58184 34415 ft 496 kts 54°
2026-05-04 05:32 3.52200 103.60947 34714 ft 495 kts 54°
2026-05-04 05:32 3.54203 103.63739 34998 ft 494 kts 54°
2026-05-04 05:32 3.56201 103.66537 35275 ft 493 kts 54°
2026-05-04 05:33 3.59510 103.71183 35719 ft 492 kts 54°
2026-05-04 05:33 3.61501 103.73983 35976 ft 491 kts 54°
2026-05-04 05:33 3.63499 103.76765 36218 ft 491 kts 54°
2026-05-04 05:33 3.66163 103.80426 36546 ft 490 kts 54°
2026-05-04 05:34 3.68173 103.83176 36795 ft 489 kts 54°
2026-05-04 05:34 3.71533 103.87778 36904 ft 494 kts 54°
2026-05-04 05:35 3.75600 103.93366 36901 ft 494 kts 54°
2026-05-04 05:35 3.79645 103.98935 36905 ft 494 kts 54°
2026-05-04 05:36 3.83664 104.04472 36906 ft 494 kts 54°
2026-05-04 05:36 3.87706 104.10041 36906 ft 494 kts 54°
2026-05-04 05:37 3.91739 104.15581 36906 ft 494 kts 54°
2026-05-04 05:37 3.95812 104.21139 36907 ft 494 kts 54°
2026-05-04 05:38 4.01877 104.29427 36904 ft 492 kts 54°
2026-05-04 05:38 4.05932 104.34980 36908 ft 492 kts 54°
2026-05-04 05:39 4.11986 104.43271 36907 ft 492 kts 54°
2026-05-04 05:40 4.18060 104.51592 36902 ft 492 kts 54°
2026-05-04 05:40 4.22081 104.57102 36904 ft 492 kts 54°
2026-05-04 05:41 4.26126 104.62645 36901 ft 492 kts 54°
2026-05-04 05:41 4.30148 104.68159 36901 ft 492 kts 54°
2026-05-04 05:42 4.34194 104.73705 36901 ft 492 kts 54°
2026-05-04 05:42 4.38245 104.79261 36904 ft 492 kts 54°
2026-05-04 05:43 4.42257 104.84766 36902 ft 492 kts 54°
2026-05-04 05:45 4.58448 105.06892 36904 ft 491 kts 54°
2026-05-04 05:47 4.74612 105.29019 36900 ft 491 kts 55°
2026-05-04 05:47 4.78628 105.34509 36898 ft 490 kts 54°
2026-05-04 05:48 4.83426 105.39330 36900 ft 492 kts 37°
2026-05-04 05:48 4.89093 105.43234 36901 ft 493 kts 34°
2026-05-04 05:49 4.94837 105.46940 36903 ft 493 kts 34°
2026-05-04 05:49 5.00631 105.50664 36902 ft 493 kts 34°
2026-05-04 05:51 5.23651 105.65643 36899 ft 493 kts 34°
2026-05-04 05:52 5.29409 105.69396 36896 ft 492 kts 34°
2026-05-04 05:52 5.35130 105.73125 36896 ft 492 kts 34°
2026-05-04 05:54 5.58089 105.88098 36897 ft 492 kts 34°
2026-05-04 05:55 5.63842 105.91853 36899 ft 492 kts 34°
2026-05-04 05:55 5.69595 105.95608 36898 ft 492 kts 34°
2026-05-04 05:56 5.75301 105.99334 36896 ft 492 kts 34°
2026-05-04 05:56 5.81046 106.03085 36899 ft 491 kts 34°
2026-05-04 05:57 5.86787 106.06836 36901 ft 491 kts 34°
2026-05-04 05:57 5.92493 106.10564 36902 ft 491 kts 34°
2026-05-04 05:58 5.98241 106.14321 36897 ft 491 kts 34°
2026-05-04 05:58 6.03942 106.18047 36899 ft 491 kts 34°
2026-05-04 05:59 6.09680 106.21800 36898 ft 491 kts 34°
2026-05-04 05:59 6.15426 106.25557 36899 ft 491 kts 34°
2026-05-04 06:00 6.21134 106.29291 36898 ft 491 kts 34°
2026-05-04 06:00 6.26880 106.33052 36900 ft 492 kts 34°
2026-05-04 06:01 6.32619 106.36808 36895 ft 491 kts 34°
2026-05-04 06:03 6.55482 106.51784 36899 ft 491 kts 34°
2026-05-04 06:05 6.81183 106.68638 36894 ft 490 kts 35°
2026-05-04 06:06 6.86909 106.72396 36894 ft 490 kts 35°
2026-05-04 06:06 6.92620 106.76146 36891 ft 489 kts 35°
2026-05-04 06:07 6.98301 106.79877 36892 ft 489 kts 35°
2026-05-04 06:07 7.04019 106.83632 36893 ft 489 kts 35°
2026-05-04 06:08 7.09684 106.87360 36893 ft 489 kts 35°
2026-05-04 06:08 7.15402 106.91125 36895 ft 489 kts 35°
2026-05-04 06:09 7.21074 106.94859 36896 ft 489 kts 35°
2026-05-04 06:11 7.43877 107.09881 36895 ft 488 kts 34°
2026-05-04 06:13 7.66594 107.24865 36890 ft 488 kts 34°
2026-05-04 06:14 7.86469 107.37991 36896 ft 488 kts 34°
2026-05-04 06:15 7.92175 107.41762 36896 ft 488 kts 34°
2026-05-04 06:15 7.97831 107.45501 36891 ft 488 kts 34°
2026-05-04 06:16 8.03517 107.49261 36892 ft 488 kts 34°
2026-05-04 06:16 8.09181 107.53008 36892 ft 488 kts 34°
2026-05-04 06:17 8.14876 107.56777 36891 ft 488 kts 34°
2026-05-04 06:17 8.20532 107.60522 36892 ft 488 kts 34°
2026-05-04 06:18 8.26231 107.64296 36894 ft 488 kts 34°
2026-05-04 06:20 8.48931 107.79342 36890 ft 489 kts 34°
2026-05-04 06:21 8.63161 107.88785 36890 ft 490 kts 34°
2026-05-04 06:22 8.68857 107.92568 36889 ft 489 kts 34°
2026-05-04 06:25 9.07685 108.18388 36895 ft 488 kts 34°
2026-05-04 06:26 9.13381 108.22182 36891 ft 489 kts 34°
2026-05-04 06:26 9.19033 108.25947 36892 ft 488 kts 34°
2026-05-04 06:27 9.33239 108.35419 36893 ft 489 kts 34°
2026-05-04 06:28 9.38895 108.39193 36893 ft 488 kts 34°
2026-05-04 06:28 9.44253 108.43390 36893 ft 486 kts 46°
2026-05-04 06:29 9.48181 108.48929 36892 ft 485 kts 64°
2026-05-04 06:29 9.50894 108.55205 36896 ft 486 kts 68°
2026-05-04 06:30 9.53395 108.61555 36893 ft 486 kts 68°
2026-05-04 06:30 9.55889 108.67890 36892 ft 486 kts 68°
2026-05-04 06:31 9.58431 108.74263 36895 ft 486 kts 68°
2026-05-04 06:31 9.60969 108.80591 36892 ft 486 kts 68°
2026-05-04 06:33 9.71177 109.06071 36898 ft 489 kts 68°
2026-05-04 06:34 9.73740 109.12481 36897 ft 489 kts 68°
2026-05-04 06:34 9.76284 109.18847 36892 ft 490 kts 68°
2026-05-04 06:36 9.86528 109.44514 36891 ft 491 kts 68°
2026-05-04 06:37 9.89083 109.50928 36891 ft 491 kts 68°
2026-05-04 06:37 9.91643 109.57356 36895 ft 490 kts 68°
2026-05-04 06:38 9.94182 109.63736 36901 ft 490 kts 68°
2026-05-04 06:40 10.04409 109.89479 36893 ft 492 kts 67°
2026-05-04 06:40 10.06966 109.95921 36899 ft 492 kts 67°
2026-05-04 06:41 10.09508 110.02330 36899 ft 492 kts 67°
2026-05-04 06:41 10.12064 110.08782 36900 ft 492 kts 68°
2026-05-04 06:42 10.14600 110.15189 36894 ft 492 kts 67°
2026-05-04 06:44 10.24812 110.41036 36900 ft 493 kts 67°
2026-05-04 06:44 10.27360 110.47510 36899 ft 494 kts 67°
2026-05-04 06:45 10.29908 110.53985 36900 ft 497 kts 67°
2026-05-04 06:45 10.32478 110.60520 36898 ft 498 kts 67°
2026-05-04 06:46 10.35037 110.67030 36898 ft 497 kts 67°
2026-05-04 06:46 10.37604 110.73566 36900 ft 497 kts 67°
2026-05-04 06:48 10.47791 110.99555 36905 ft 493 kts 68°
2026-05-04 06:50 10.57901 111.25412 36901 ft 492 kts 67°
2026-05-04 06:51 10.60431 111.31895 36895 ft 494 kts 67°
2026-05-04 06:51 10.62965 111.38390 36899 ft 494 kts 67°
2026-05-04 06:52 10.65483 111.44850 36901 ft 494 kts 67°
2026-05-04 06:52 10.68017 111.51355 36895 ft 494 kts 67°
2026-05-04 06:53 10.70548 111.57857 36900 ft 494 kts 67°
2026-05-04 06:53 10.73057 111.64309 36901 ft 494 kts 67°
2026-05-04 06:54 10.75584 111.70809 36903 ft 494 kts 67°
2026-05-04 06:54 10.78107 111.77306 36899 ft 494 kts 67°
2026-05-04 06:55 10.80633 111.83814 36893 ft 492 kts 67°
2026-05-04 06:55 10.83145 111.90291 36899 ft 491 kts 67°
2026-05-04 06:57 10.93244 112.16077 36902 ft 492 kts 63°
2026-05-04 06:58 10.97157 112.21759 36896 ft 491 kts 45°
2026-05-04 06:58 11.02443 112.26169 36896 ft 491 kts 36°
2026-05-04 06:59 11.07981 112.30205 36898 ft 492 kts 35°
2026-05-04 06:59 11.13579 112.34232 36895 ft 492 kts 35°
2026-05-04 07:01 11.35709 112.50418 36898 ft 490 kts 35°
2026-05-04 07:02 11.41256 112.54487 36898 ft 490 kts 35°
2026-05-04 07:02 11.46766 112.58532 36901 ft 490 kts 35°
2026-05-04 07:03 11.52314 112.62619 36898 ft 490 kts 35°
2026-05-04 07:03 11.57821 112.66674 36901 ft 490 kts 35°
2026-05-04 07:04 11.63378 112.70770 36902 ft 491 kts 35°
2026-05-04 07:04 11.68916 112.74853 36898 ft 490 kts 35°
2026-05-04 07:05 11.74414 112.78910 36899 ft 490 kts 36°
2026-05-04 07:05 11.79986 112.83024 36903 ft 496 kts 36°
2026-05-04 07:06 11.88372 112.89218 36905 ft 496 kts 36°
2026-05-04 07:07 11.93962 112.93350 36901 ft 496 kts 36°
2026-05-04 07:09 12.16300 113.09885 36909 ft 498 kts 35°
2026-05-04 07:09 12.21933 113.14059 36907 ft 501 kts 35°
2026-05-04 07:10 12.27555 113.18229 36905 ft 501 kts 35°
2026-05-04 07:12 12.50146 113.34987 36907 ft 505 kts 35°
2026-05-04 07:12 12.55846 113.39214 36905 ft 506 kts 35°
2026-05-04 07:13 12.61525 113.43429 36909 ft 506 kts 34°
2026-05-04 07:13 12.67230 113.47666 36907 ft 506 kts 35°
2026-05-04 07:14 12.80523 113.57551 36904 ft 508 kts 35°
2026-05-04 07:15 12.86247 113.61811 36905 ft 508 kts 35°
2026-05-04 07:15 12.91937 113.66048 36903 ft 508 kts 35°
2026-05-04 07:16 12.97661 113.70313 36905 ft 508 kts 35°
2026-05-04 07:16 13.03377 113.74575 36904 ft 508 kts 34°
2026-05-04 07:17 13.09086 113.78833 36906 ft 508 kts 34°
2026-05-04 07:17 13.14823 113.83115 36905 ft 508 kts 35°
2026-05-04 07:18 13.20528 113.87376 36905 ft 508 kts 34°
2026-05-04 07:18 13.26258 113.91658 36905 ft 509 kts 35°
2026-05-04 07:19 13.31952 113.95916 36904 ft 509 kts 35°
2026-05-04 07:19 13.37686 114.00206 36904 ft 508 kts 35°
2026-05-04 07:20 13.43412 114.04493 36906 ft 509 kts 35°
2026-05-04 07:20 13.49097 114.08751 36907 ft 509 kts 35°
2026-05-04 07:22 13.71967 114.25909 36905 ft 508 kts 34°
2026-05-04 07:23 13.77643 114.30174 36905 ft 508 kts 34°
2026-05-04 07:23 13.83360 114.34472 36905 ft 508 kts 34°
2026-05-04 07:24 13.89093 114.38785 36899 ft 508 kts 35°
2026-05-04 07:24 13.94771 114.43062 36906 ft 509 kts 35°
2026-05-04 07:26 14.14684 114.63880 36903 ft 510 kts 45°
2026-05-04 07:27 14.19543 114.69188 36905 ft 510 kts 45°
2026-05-04 07:27 14.24429 114.74520 36905 ft 510 kts 45°
2026-05-04 07:28 14.29273 114.79810 36906 ft 511 kts 45°
2026-05-04 07:28 14.34156 114.85147 36905 ft 511 kts 45°
2026-05-04 07:29 14.39026 114.90474 36906 ft 511 kts 46°
2026-05-04 07:29 14.43919 114.95829 36905 ft 511 kts 45°
2026-05-04 07:30 14.48773 115.01146 36913 ft 511 kts 45°
2026-05-04 07:30 14.53652 115.06493 36908 ft 510 kts 46°
2026-05-04 07:31 14.58520 115.11832 36907 ft 510 kts 46°
2026-05-04 07:33 14.77957 115.33187 36909 ft 510 kts 46°
2026-05-04 07:33 14.82827 115.38547 36911 ft 510 kts 46°
2026-05-04 07:34 14.87662 115.43872 36910 ft 510 kts 46°
2026-05-04 07:34 14.92528 115.49235 36911 ft 510 kts 46°
2026-05-04 07:35 14.97360 115.54565 36911 ft 510 kts 46°
2026-05-04 07:35 15.02207 115.59915 36910 ft 510 kts 46°
2026-05-04 07:36 15.07074 115.65291 36912 ft 510 kts 46°
2026-05-04 07:38 15.26503 115.86789 36909 ft 513 kts 46°
2026-05-04 07:38 15.31356 115.92168 36911 ft 513 kts 46°
2026-05-04 07:39 15.36226 115.97571 36910 ft 512 kts 46°
2026-05-04 07:39 15.41086 116.02968 36913 ft 511 kts 46°
2026-05-04 07:40 15.45949 116.08370 36908 ft 513 kts 46°
2026-05-04 07:40 15.50802 116.13764 36908 ft 513 kts 46°
2026-05-04 07:41 15.55681 116.19192 36908 ft 513 kts 46°
2026-05-04 07:41 15.60555 116.24619 36908 ft 513 kts 46°
2026-05-04 07:42 15.65403 116.30021 36914 ft 515 kts 46°
2026-05-04 07:42 15.70298 116.35480 36915 ft 516 kts 46°
2026-05-04 07:43 15.75190 116.40938 36914 ft 516 kts 46°
2026-05-04 07:43 15.80086 116.46407 36914 ft 516 kts 46°
2026-05-04 07:44 15.84963 116.51857 36908 ft 516 kts 46°
2026-05-04 07:44 15.89825 116.57296 36913 ft 516 kts 45°
2026-05-04 07:45 15.94712 116.62765 36911 ft 515 kts 46°
2026-05-04 07:45 15.99572 116.68209 36914 ft 515 kts 46°
2026-05-04 07:46 16.04463 116.73693 36911 ft 515 kts 46°
2026-05-04 07:46 16.09306 116.79126 36911 ft 515 kts 46°
2026-05-04 07:47 16.14189 116.84609 36911 ft 515 kts 46°
2026-05-04 07:49 16.33665 117.06519 36914 ft 517 kts 46°
2026-05-04 07:49 16.38553 117.12029 36914 ft 517 kts 46°
2026-05-04 07:50 16.43404 117.17501 36909 ft 517 kts 46°
2026-05-04 07:50 16.48279 117.23009 36914 ft 515 kts 46°
2026-05-04 07:51 16.53130 117.28491 36912 ft 516 kts 45°
2026-05-04 07:51 16.58019 117.34017 36911 ft 517 kts 45°
2026-05-04 07:52 16.62875 117.39513 36911 ft 517 kts 45°
2026-05-04 07:52 16.67761 117.45047 36911 ft 517 kts 45°
2026-05-04 07:54 16.87157 117.67064 36911 ft 515 kts 45°
2026-05-04 07:55 16.92027 117.72603 36908 ft 515 kts 45°
2026-05-04 07:55 16.96855 117.78098 36911 ft 515 kts 46°
2026-05-04 07:56 17.01710 117.83630 36909 ft 515 kts 46°
2026-05-04 07:56 17.06538 117.89135 36912 ft 516 kts 45°
2026-05-04 07:57 17.11406 117.94689 36911 ft 517 kts 45°
2026-05-04 07:57 17.16272 118.00246 36911 ft 517 kts 45°
2026-05-04 07:58 17.21111 118.05779 36911 ft 517 kts 45°
2026-05-04 07:58 17.25973 118.11342 36911 ft 516 kts 45°
2026-05-04 07:59 17.30788 118.16855 36916 ft 516 kts 45°
2026-05-04 07:59 17.35647 118.22422 36906 ft 517 kts 45°
2026-05-04 08:00 17.40477 118.27961 36914 ft 517 kts 45°
2026-05-04 08:02 17.59045 118.49302 36914 ft 517 kts 45°
2026-05-04 08:02 17.63896 118.54888 36907 ft 517 kts 45°
2026-05-04 08:03 17.69533 118.61386 36905 ft 517 kts 45°
2026-05-04 08:03 17.73568 118.66040 36905 ft 517 kts 45°
2026-05-04 08:04 17.78401 118.71621 36913 ft 517 kts 45°
2026-05-04 08:04 17.83242 118.77217 36910 ft 517 kts 45°
2026-05-04 08:05 17.88069 118.82799 36913 ft 518 kts 45°
2026-05-04 08:05 17.92938 118.88437 36911 ft 519 kts 45°
2026-05-04 08:06 17.97766 118.94030 36927 ft 519 kts 45°
2026-05-04 08:06 18.00196 118.96848 37167 ft 518 kts 45°
2026-05-04 08:06 18.02616 118.99652 37584 ft 514 kts 46°
2026-05-04 08:08 18.19260 119.18997 38913 ft 511 kts 46°
2026-05-04 08:08 18.21655 119.21786 38904 ft 511 kts 46°
2026-05-04 08:11 18.43080 119.46783 38903 ft 512 kts 46°
2026-05-04 08:11 18.50213 119.55128 38901 ft 512 kts 46°
2026-05-04 08:12 18.54980 119.60711 38900 ft 511 kts 46°
2026-05-04 08:12 18.59745 119.66297 38908 ft 511 kts 46°
2026-05-04 08:13 18.64480 119.71849 38902 ft 512 kts 46°
2026-05-04 08:13 18.69253 119.77455 38903 ft 512 kts 46°
2026-05-04 08:14 18.73984 119.83018 38900 ft 512 kts 46°
2026-05-04 08:16 18.93004 120.05426 38905 ft 512 kts 46°
2026-05-04 08:16 18.97775 120.11060 38911 ft 512 kts 46°
2026-05-04 08:17 19.02502 120.16647 38911 ft 512 kts 46°
2026-05-04 08:17 19.07264 120.22280 38918 ft 512 kts 46°
2026-05-04 08:19 19.26240 120.44781 38914 ft 513 kts 46°
2026-05-04 08:20 19.30966 120.50399 38916 ft 513 kts 46°
2026-05-04 08:20 19.35732 120.56070 38911 ft 513 kts 46°
2026-05-04 08:21 19.40463 120.61704 38916 ft 514 kts 46°
2026-05-04 08:21 19.45223 120.67381 38917 ft 514 kts 46°
2026-05-04 08:22 19.49952 120.73022 38919 ft 514 kts 46°
2026-05-04 08:24 19.68923 120.95711 38932 ft 514 kts 46°
2026-05-04 08:24 19.73677 121.01411 38925 ft 515 kts 46°
2026-05-04 08:25 19.78428 121.07113 38930 ft 515 kts 46°
2026-05-04 08:25 19.83153 121.12789 38930 ft 515 kts 46°
2026-05-04 08:27 20.02127 121.35640 38947 ft 516 kts 46°
2026-05-04 08:28 20.06890 121.41391 38936 ft 517 kts 46°
2026-05-04 08:28 20.11648 121.47141 38938 ft 517 kts 46°
2026-05-04 08:29 20.16368 121.52850 38935 ft 517 kts 46°
2026-05-04 08:31 20.35367 121.75890 38950 ft 518 kts 46°
2026-05-04 08:33 20.54365 121.99024 38951 ft 519 kts 46°
2026-05-04 08:35 20.73374 122.22265 38959 ft 520 kts 46°
2026-05-04 08:35 20.78101 122.28060 38960 ft 520 kts 46°
2026-05-04 08:37 20.94752 122.48519 38972 ft 522 kts 46°
2026-05-04 08:38 20.99664 122.54258 38964 ft 519 kts 39°
2026-05-04 08:38 21.05409 122.58792 38963 ft 515 kts 30°
2026-05-04 08:40 21.29526 122.75531 38965 ft 517 kts 30°
2026-05-04 08:41 21.35563 122.79746 38972 ft 517 kts 30°
2026-05-04 08:41 21.41565 122.83940 38982 ft 517 kts 30°
2026-05-04 08:42 21.47609 122.88168 38971 ft 518 kts 29°
2026-05-04 08:42 21.53656 122.92400 38972 ft 518 kts 30°
2026-05-04 08:43 21.59668 122.96613 38969 ft 518 kts 30°
2026-05-04 08:43 21.65719 123.00857 38971 ft 518 kts 30°
2026-05-04 08:44 21.71768 123.05105 38975 ft 518 kts 30°
2026-05-04 08:46 21.95877 123.22075 38977 ft 520 kts 29°
2026-05-04 08:46 22.01949 123.26359 38979 ft 520 kts 29°
2026-05-04 08:47 22.07968 123.30612 38983 ft 520 kts 29°
2026-05-04 08:47 22.14026 123.34897 38981 ft 520 kts 29°
2026-05-04 08:48 22.20085 123.39186 38985 ft 521 kts 29°
2026-05-04 08:48 22.26163 123.43492 38984 ft 521 kts 29°
2026-05-04 08:49 22.32207 123.47780 38985 ft 521 kts 29°
2026-05-04 08:50 22.52444 123.62169 38991 ft 524 kts 29°
2026-05-04 08:51 22.58534 123.66510 39002 ft 524 kts 29°
2026-05-04 08:51 22.64635 123.70862 38999 ft 526 kts 29°
2026-05-04 08:52 22.70721 123.75208 38999 ft 526 kts 29°
2026-05-04 08:52 22.77844 123.80303 39004 ft 527 kts 29°
2026-05-04 08:54 23.01326 123.97143 39018 ft 528 kts 29°
2026-05-04 08:55 23.07384 124.01579 39006 ft 528 kts 30°
2026-05-04 08:55 23.13450 124.06077 39015 ft 528 kts 30°
2026-05-04 09:01 23.69327 124.64740 39054 ft 539 kts 45°
2026-05-04 09:01 23.74254 124.70911 39043 ft 541 kts 45°
2026-05-04 09:02 23.79204 124.77121 39041 ft 542 kts 45°
2026-05-04 09:02 23.84124 124.83302 39043 ft 541 kts 45°
2026-05-04 09:03 23.89062 124.89513 39047 ft 541 kts 45°
2026-05-04 09:03 23.94009 124.95743 39048 ft 541 kts 45°
2026-05-04 09:04 23.98922 125.01937 39045 ft 541 kts 46°
2026-05-04 09:04 24.03854 125.08163 39051 ft 540 kts 46°
2026-05-04 09:05 24.08774 125.14383 39077 ft 540 kts 45°
2026-05-04 09:05 24.13704 125.20622 39052 ft 542 kts 45°
2026-05-04 09:06 24.18619 125.26850 39057 ft 543 kts 46°
2026-05-04 09:08 24.38338 125.51922 39064 ft 543 kts 46°
2026-05-04 09:08 24.43275 125.58220 39072 ft 542 kts 46°
2026-05-04 09:09 24.48163 125.64464 39092 ft 542 kts 46°
2026-05-04 09:09 24.53096 125.70772 39076 ft 545 kts 46°
2026-05-04 09:10 24.58047 125.77112 39068 ft 546 kts 46°
2026-05-04 09:10 24.62957 125.83409 39091 ft 544 kts 46°
2026-05-04 09:11 24.67883 125.89735 39098 ft 544 kts 46°
2026-05-04 09:11 24.72788 125.96040 39088 ft 546 kts 46°
2026-05-04 09:12 24.77727 126.02397 39086 ft 547 kts 46°
2026-05-04 09:14 24.97506 126.27947 39099 ft 548 kts 46°
2026-05-04 09:14 25.02443 126.34347 39105 ft 547 kts 46°
2026-05-04 09:15 25.07354 126.40723 39101 ft 549 kts 46°
2026-05-04 09:15 25.12304 126.47155 39099 ft 550 kts 46°
2026-05-04 09:17 25.34552 126.76179 39087 ft 550 kts 46°
2026-05-04 09:18 25.39468 126.82617 39105 ft 549 kts 46°
2026-05-04 09:18 25.44381 126.89062 39110 ft 551 kts 46°
2026-05-04 09:19 25.49330 126.95559 39104 ft 552 kts 46°
2026-05-04 09:19 25.54286 127.02076 39098 ft 552 kts 46°
2026-05-04 09:20 25.59224 127.08580 39127 ft 551 kts 46°
2026-05-04 09:20 25.64237 127.15031 39105 ft 551 kts 44°
2026-05-04 09:21 25.69335 127.21328 39105 ft 552 kts 44°
2026-05-04 09:21 25.74465 127.27676 39104 ft 551 kts 45°
2026-05-04 09:22 25.79545 127.34018 39104 ft 551 kts 45°
2026-05-04 09:22 25.84629 127.40396 39105 ft 551 kts 45°
2026-05-04 09:23 25.89704 127.46775 39108 ft 551 kts 45°
2026-05-04 09:23 25.94752 127.53127 39126 ft 550 kts 45°
2026-05-04 09:25 26.15054 127.78714 39098 ft 550 kts 42°
2026-05-04 09:26 26.20714 127.84407 39100 ft 547 kts 36°
2026-05-04 09:26 26.26535 127.89866 39102 ft 546 kts 35°
2026-05-04 09:27 26.32342 127.95258 39105 ft 547 kts 34°
2026-05-04 09:27 26.38201 128.00718 39104 ft 547 kts 35°
2026-05-04 09:28 26.44015 128.06160 39110 ft 547 kts 35°
2026-05-04 09:28 26.49847 128.11632 39139 ft 548 kts 35°
2026-05-04 09:29 26.55708 128.17138 39118 ft 549 kts 35°
2026-05-04 09:29 26.61529 128.22613 39119 ft 549 kts 35°
2026-05-04 09:30 26.67387 128.28132 39122 ft 549 kts 35°
2026-05-04 09:30 26.73211 128.33625 39114 ft 550 kts 35°
2026-05-04 09:31 26.79035 128.39126 39101 ft 550 kts 35°
2026-05-04 09:31 26.84896 128.44670 39119 ft 550 kts 35°
2026-05-04 09:32 26.90756 128.50222 39126 ft 552 kts 34°
2026-05-04 09:34 27.14169 128.72475 39130 ft 553 kts 35°
2026-05-04 09:34 27.20052 128.78087 39129 ft 553 kts 35°
2026-05-04 09:35 27.25902 128.83676 39132 ft 554 kts 34°
2026-05-04 09:35 27.31789 128.89307 39107 ft 556 kts 34°
2026-05-04 09:37 27.55011 129.12397 39106 ft 564 kts 44°
2026-05-04 09:38 27.60069 129.19107 39133 ft 564 kts 46°
2026-05-04 09:38 27.65039 129.25914 39135 ft 564 kts 46°
2026-05-04 09:39 27.70033 129.32767 39135 ft 564 kts 46°
2026-05-04 09:39 27.74193 129.38458 39136 ft 564 kts 46°
2026-05-04 09:40 27.79201 129.45304 39129 ft 565 kts 46°
2026-05-04 09:40 27.84186 129.52126 39128 ft 565 kts 46°
2026-05-04 09:42 28.04204 129.79641 39137 ft 567 kts 46°
2026-05-04 09:43 28.09205 129.86542 39128 ft 568 kts 46°
2026-05-04 09:43 28.14192 129.93435 39091 ft 568 kts 46°
2026-05-04 09:44 28.19183 130.00346 39085 ft 568 kts 46°
2026-05-04 09:46 28.39197 130.28169 39107 ft 571 kts 47°
2026-05-04 09:46 28.44219 130.35181 39119 ft 571 kts 47°
2026-05-04 09:47 28.49235 130.42196 39114 ft 571 kts 47°
2026-05-04 09:49 28.69239 130.70288 39104 ft 573 kts 46°
2026-05-04 09:51 28.86755 130.95037 39093 ft 575 kts 47°
2026-05-04 09:51 28.91773 131.02157 39101 ft 574 kts 47°
2026-05-04 09:52 28.96775 131.09267 39114 ft 575 kts 47°
2026-05-04 09:52 29.01779 131.16386 39092 ft 577 kts 47°
2026-05-04 09:53 29.06794 131.23537 39098 ft 575 kts 47°
2026-05-04 09:53 29.11781 131.30661 39098 ft 575 kts 47°
2026-05-04 09:54 29.16776 131.37807 39092 ft 575 kts 47°
2026-05-04 09:54 29.21769 131.44963 39098 ft 574 kts 47°
2026-05-04 09:55 29.26735 131.52094 39104 ft 575 kts 47°
2026-05-04 09:55 29.31727 131.59272 39094 ft 575 kts 47°
2026-05-04 09:56 29.36719 131.66466 39101 ft 574 kts 47°
2026-05-04 09:56 29.41667 131.73608 39100 ft 576 kts 47°
2026-05-04 09:57 29.46665 131.80832 39092 ft 577 kts 47°
2026-05-04 09:57 29.51658 131.88065 39106 ft 576 kts 47°
2026-05-04 09:58 29.56622 131.95269 39091 ft 578 kts 47°
2026-05-04 09:58 29.61616 132.02525 39088 ft 577 kts 47°
2026-05-04 10:00 29.81886 132.31170 39081 ft 579 kts 46°
2026-05-04 10:04 30.17585 132.81720 39073 ft 582 kts 46°
2026-05-04 10:04 30.22701 132.89019 39065 ft 583 kts 46°
2026-05-04 10:05 30.27785 132.96285 39073 ft 584 kts 46°
2026-05-04 10:05 30.32921 133.03637 39080 ft 584 kts 46°
2026-05-04 10:06 30.37997 133.10918 39065 ft 585 kts 46°
2026-05-04 10:06 30.43125 133.18286 39060 ft 585 kts 46°
2026-05-04 10:08 30.60926 133.43972 39043 ft 584 kts 47°
2026-05-04 10:08 30.66027 133.51362 39062 ft 584 kts 47°
2026-05-04 10:09 30.71076 133.58693 39096 ft 584 kts 47°
2026-05-04 10:09 30.76169 133.66098 39058 ft 586 kts 47°
2026-05-04 10:10 30.81228 133.73470 39057 ft 585 kts 47°
2026-05-04 10:10 30.86303 133.80886 39064 ft 586 kts 47°
2026-05-04 10:11 30.91378 133.88297 39055 ft 586 kts 47°
2026-05-04 10:11 30.96462 133.95738 39077 ft 586 kts 47°
2026-05-04 10:12 31.01551 134.03204 39032 ft 587 kts 47°
2026-05-04 10:12 31.06607 134.10636 39056 ft 586 kts 47°
2026-05-04 10:13 31.11679 134.18108 39064 ft 587 kts 47°
2026-05-04 10:13 31.16741 134.25576 39047 ft 588 kts 48°
2026-05-04 10:14 31.21818 134.33083 39080 ft 587 kts 48°
2026-05-04 10:16 31.42076 134.63182 39036 ft 589 kts 48°
2026-05-04 10:16 31.47101 134.70685 39061 ft 588 kts 48°
2026-05-04 10:17 31.52165 134.78260 39045 ft 590 kts 48°
2026-05-04 10:19 31.72338 135.08590 39040 ft 589 kts 49°
2026-05-04 10:19 31.77002 135.16562 39037 ft 591 kts 55°
2026-05-04 10:20 31.81356 135.24780 39034 ft 591 kts 56°
2026-05-04 10:20 31.85720 135.32919 39029 ft 591 kts 55°
2026-05-04 10:21 31.90192 135.41074 39028 ft 591 kts 54°
2026-05-04 10:21 31.94645 135.49141 39023 ft 591 kts 54°
2026-05-04 10:22 32.01372 135.61369 39022 ft 592 kts 55°
2026-05-04 10:23 32.05841 135.69529 39017 ft 592 kts 55°
2026-05-04 10:25 32.23623 136.02181 39000 ft 591 kts 55°
2026-05-04 10:25 32.28024 136.10306 39002 ft 590 kts 55°
2026-05-04 10:26 32.32464 136.18518 39004 ft 590 kts 55°
2026-05-04 10:26 32.36874 136.26668 38996 ft 590 kts 55°
2026-05-04 10:27 32.41300 136.34869 38988 ft 591 kts 55°
2026-05-04 10:27 32.45700 136.43044 38987 ft 590 kts 56°
2026-05-04 10:28 32.50106 136.51251 38985 ft 590 kts 56°
2026-05-04 10:28 32.54519 136.59490 38976 ft 590 kts 56°
2026-05-04 10:29 32.58888 136.67663 38980 ft 589 kts 56°
2026-05-04 10:29 32.62540 136.74509 38977 ft 589 kts 56°
2026-05-04 10:30 32.67640 136.84089 38974 ft 589 kts 56°
2026-05-04 10:30 32.71292 136.90964 38971 ft 590 kts 56°
2026-05-04 10:31 32.75667 136.99219 38992 ft 590 kts 56°
2026-05-04 10:32 32.91061 137.28408 38959 ft 597 kts 56°
2026-05-04 10:33 32.95434 137.36744 38954 ft 597 kts 56°
2026-05-04 10:33 32.99840 137.45158 38952 ft 596 kts 56°
2026-05-04 10:34 33.04203 137.53511 38950 ft 596 kts 56°
2026-05-04 10:34 33.08581 137.61911 38952 ft 596 kts 57°
2026-05-04 10:35 33.12955 137.70323 38941 ft 596 kts 57°
2026-05-04 10:35 33.17324 137.78745 38939 ft 596 kts 57°
2026-05-04 10:36 33.21660 137.87121 38933 ft 596 kts 57°
2026-05-04 10:36 33.26018 137.95561 38927 ft 595 kts 57°
2026-05-04 10:37 33.30366 138.03999 38927 ft 595 kts 57°
2026-05-04 10:37 33.34685 138.12402 38925 ft 595 kts 57°
2026-05-04 10:39 33.49771 138.41904 38913 ft 593 kts 57°
2026-05-04 10:40 33.54056 138.50310 38906 ft 592 kts 57°
2026-05-04 10:40 33.58351 138.58758 38901 ft 592 kts 57°
2026-05-04 10:41 33.62634 138.67206 38899 ft 591 kts 57°
2026-05-04 10:41 33.66900 138.75640 38893 ft 591 kts 57°
2026-05-04 10:42 33.71139 138.84041 38888 ft 591 kts 57°
2026-05-04 10:42 33.75400 138.92506 38875 ft 590 kts 57°
2026-05-04 10:43 33.79617 139.00893 38892 ft 589 kts 58°
2026-05-04 10:44 33.94374 139.30432 38651 ft 579 kts 58°
2026-05-04 10:45 33.96431 139.34569 38392 ft 573 kts 58°
2026-05-04 10:45 33.98484 139.38699 37634 ft 573 kts 58°
2026-05-04 10:45 34.00533 139.42824 36979 ft 572 kts 59°
2026-05-04 10:45 34.02573 139.46937 36339 ft 570 kts 59°
2026-05-04 10:46 34.04585 139.50998 35717 ft 569 kts 59°
2026-05-04 10:46 34.06662 139.55077 35043 ft 569 kts 55°
2026-05-04 10:46 34.09014 139.58907 34392 ft 569 kts 52°
2026-05-04 10:46 34.11457 139.62694 33615 ft 571 kts 51°
2026-05-04 10:47 34.13932 139.66453 32813 ft 573 kts 51°
2026-05-04 10:47 34.16435 139.70216 32019 ft 575 kts 51°
2026-05-04 10:47 34.18923 139.73947 31236 ft 577 kts 51°
2026-05-04 10:47 34.21445 139.77733 30415 ft 579 kts 51°
2026-05-04 10:49 34.38784 140.04025 25760 ft 558 kts 50°
2026-05-04 10:49 34.41198 140.07702 25163 ft 554 kts 50°
2026-05-04 10:50 34.43567 140.11311 24589 ft 551 kts 49°
2026-05-04 10:51 34.57885 140.38046 20390 ft 524 kts 57°
2026-05-04 10:52 34.59790 140.41747 19825 ft 520 kts 57°
2026-05-04 10:52 34.61700 140.45460 19237 ft 516 kts 57°
2026-05-04 10:52 34.63593 140.49147 18638 ft 512 kts 58°
2026-05-04 10:54 34.79633 140.67854 14598 ft 416 kts 345°
2026-05-04 10:54 34.82411 140.67288 14095 ft 399 kts 336°
2026-05-04 10:56 35.01322 140.64074 11486 ft 360 kts 342°
2026-05-04 10:56 35.03761 140.63764 11385 ft 342 kts 343°
2026-05-04 10:56 35.06057 140.63469 11208 ft 328 kts 342°
2026-05-04 10:57 35.08291 140.63181 11062 ft 315 kts 342°
2026-05-04 10:57 35.10425 140.62906 10920 ft 301 kts 342°
2026-05-04 10:57 35.12470 140.62643 10772 ft 289 kts 341°
2026-05-04 10:57 35.14459 140.62383 10526 ft 284 kts 341°
2026-05-04 10:58 35.16391 140.62126 10263 ft 281 kts 342°
2026-05-04 10:58 35.18326 140.61871 10003 ft 279 kts 342°
2026-05-04 10:58 35.20317 140.61599 9845 ft 293 kts 342°
2026-05-04 10:58 35.22359 140.61329 9769 ft 293 kts 346°
2026-05-04 10:59 35.24399 140.61071 9271 ft 293 kts 347°
2026-05-04 10:59 35.26398 140.60822 9075 ft 282 kts 347°
2026-05-04 10:59 35.28281 140.60589 8929 ft 270 kts 347°
2026-05-04 10:59 35.30110 140.60360 8791 ft 258 kts 347°
2026-05-04 11:00 35.31855 140.60139 8653 ft 246 kts 346°
2026-05-04 11:01 35.42636 140.58744 7128 ft 214 kts 347°
2026-05-04 11:02 35.44119 140.58551 6854 ft 215 kts 347°
2026-05-04 11:02 35.45612 140.58357 6467 ft 216 kts 347°
2026-05-04 11:05 35.62537 140.50810 3690 ft 164 kts 324°
2026-05-04 11:06 35.63494 140.50119 3459 ft 158 kts 325°
2026-05-04 11:06 35.64417 140.49453 3259 ft 149 kts 325°
2026-05-04 11:06 35.65303 140.48813 3059 ft 147 kts 326°
2026-05-04 11:06 35.66185 140.48175 2859 ft 147 kts 326°
2026-05-04 11:08 35.72217 140.43814 1527 ft 134 kts 330°
2026-05-04 11:10 35.78055 140.39596 312 ft 140 kts 325°